When you browse on this site, cookies collect data to enhance your experience and personalize the content and advertising you see.
Visit our Privacy Policy to learn more. By continuing to use the site, you agree to this use of cookies and data.
  • En España
  • Lista de países
  • Para 7 días
  • Temperatura del agua
  • El tiempo en el mapa
  • Informadores
  • user-avatar
    Iniciar sesión

    Tiempo cada hora Groa de Murviedro

    Hoy, 20 Febrero, Jueves

    Tiempo Temperatura Precipitaciones Viento Presión Humedad
    00:00 +11°C° 0 mm 1 mps 770 mmHg 89%
    01:00 +11°C° 0 mm 1 mps 769 mmHg 88%
    02:00 +11°C° 0 mm 1 mps 769 mmHg 87%
    03:00 +11°C° 0 mm 1 mps 769 mmHg 85%
    04:00 +11°C° 0 mm 1 mps 768 mmHg 83%
    05:00 +11°C° 0 mm 1 mps 768 mmHg 81%
    06:00 +10°C° 0 mm 1 mps 768 mmHg 78%
    07:00 +12°C° 0 mm 1 mps 768 mmHg 73%
    08:00 +13°C° 0 mm 1 mps 768 mmHg 67%
    09:00 +15°C° 0 mm 1 mps 768 mmHg 61%
    10:00 +16°C° 0 mm 1 mps 768 mmHg 57%
    11:00 +18°C° 0 mm 2 mps 767 mmHg 53%
    12:00 +19°C° 0 mm 2 mps 767 mmHg 49%
    13:00 +19°C° 0 mm 3 mps 767 mmHg 52%
    14:00 +19°C° 0 mm 3 mps 766 mmHg 54%
    15:00 +19°C° 0 mm 4 mps 766 mmHg 57%
    16:00 +17°C° 0 mm 3 mps 766 mmHg 67%
    17:00 +14°C° 0 mm 3 mps 767 mmHg 77%
    18:00 +13°C° 0 mm 2 mps 767 mmHg 86%
    19:00 +13°C° 0 mm 2 mps 767 mmHg 87%
    20:00 +12°C° 0 mm 2 mps 768 mmHg 88%
    21:00 +12°C° 0 mm 1 mps 768 mmHg 89%
    22:00 +12°C° 0 mm 1 mps 768 mmHg 89%
    23:00 +12°C° 0 mm 1 mps 769 mmHg 88%

    Mañana, 21 Febrero, Viernes

    Tiempo Temperatura Precipitaciones Viento Presión Humedad
    00:00 +11°C° 0 mm 1 mps 769 mmHg 88%
    01:00 +11°C° 0 mm 1 mps 769 mmHg 88%
    02:00 +11°C° 0 mm 1 mps 769 mmHg 88%
    03:00 +11°C° 0 mm 1 mps 769 mmHg 88%
    04:00 +11°C° 0 mm 1 mps 770 mmHg 87%
    05:00 +11°C° 0 mm 1 mps 770 mmHg 86%
    06:00 +11°C° 0 mm 1 mps 771 mmHg 85%
    13:00 +18°C° 0 mm 2 mps 771 mmHg 52%
    14:00 +18°C° 0 mm 2 mps 771 mmHg 53%
    15:00 +18°C° 0 mm 3 mps 770 mmHg 55%
    16:00 +17°C° 0 mm 2 mps 770 mmHg 64%
    17:00 +15°C° 0 mm 2 mps 770 mmHg 74%
    18:00 +13°C° 0 mm 1 mps 770 mmHg 83%
    19:00 +13°C° 0 mm 1 mps 771 mmHg 84%
    20:00 +12°C° 0 mm 1 mps 771 mmHg 85%
    21:00 +12°C° 0 mm 1 mps 771 mmHg 86%
    22:00 +12°C° 0 mm 1 mps 771 mmHg 85%
    23:00 +11°C° 0 mm 1 mps 772 mmHg 84%

    Pasado mañana, 22 Febrero, Sábado

    Tiempo Temperatura Precipitaciones Viento Presión Humedad
    00:00 +11°C° 0 mm 1 mps 772 mmHg 83%
    01:00 +11°C° 0 mm 1 mps 772 mmHg 81%
    02:00 +11°C° 0 mm 1 mps 772 mmHg 79%
    03:00 +11°C° 0 mm 1 mps 771 mmHg 77%
    04:00 +11°C° 0 mm 1 mps 771 mmHg 75%
    05:00 +11°C° 0 mm 1 mps 771 mmHg 73%
    06:00 +11°C° 0 mm 1 mps 771 mmHg 71%
    07:00 +12°C° 0 mm 1 mps 772 mmHg 66%
    08:00 +14°C° 0 mm 1 mps 772 mmHg 60%
    09:00 +15°C° 0 mm 1 mps 772 mmHg 55%
    10:00 +18°C° 0 mm 1 mps 772 mmHg 53%
    11:00 +19°C° 0 mm 1 mps 773 mmHg 52%
    12:00 +19°C° 0 mm 2 mps 773 mmHg 50%
    13:00 +19°C° 0 mm 2 mps 772 mmHg 51%
    14:00 +19°C° 0 mm 2 mps 772 mmHg 52%
    15:00 +19°C° 0 mm 3 mps 771 mmHg 54%
    16:00 +17°C° 0 mm 2 mps 772 mmHg 64%
    17:00 +15°C° 0 mm 2 mps 772 mmHg 74%
    18:00 +13°C° 0 mm 1 mps 772 mmHg 84%
    19:00 +13°C° 0 mm 1 mps 773 mmHg 85%
    20:00 +13°C° 0 mm 1 mps 773 mmHg 86%
    21:00 +12°C° 0 mm 1 mps 773 mmHg 87%
    22:00 +12°C° 0 mm 1 mps 774 mmHg 86%
    23:00 +12°C° 0 mm 1 mps 774 mmHg 85%

    23 Febrero, Domingo

    Tiempo Temperatura Precipitaciones Viento Presión Humedad
    00:00 +12°C° 0 mm 1 mps 774 mmHg 84%
    01:00 +12°C° 0 mm 1 mps 773 mmHg 83%
    02:00 +11°C° 0 mm 1 mps 773 mmHg 83%
    03:00 +11°C° 0 mm 1 mps 773 mmHg 82%
    04:00 +11°C° 0 mm 1 mps 773 mmHg 81%
    05:00 +11°C° 0 mm 1 mps 773 mmHg 80%
    06:00 +11°C° 0 mm 1 mps 773 mmHg 80%
    07:00 +13°C° 0 mm 1 mps 773 mmHg 73%
    08:00 +14°C° 0 mm 1 mps 774 mmHg 66%
    09:00 +16°C° 0 mm 1 mps 774 mmHg 60%
    10:00 +18°C° 0 mm 1 mps 774 mmHg 55%
    11:00 +19°C° 0 mm 1 mps 773 mmHg 49%
    12:00 +20°C° 0 mm 2 mps 773 mmHg 44%
    13:00 +20°C° 0 mm 2 mps 773 mmHg 45%
    14:00 +20°C° 0 mm 3 mps 772 mmHg 46%
    15:00 +20°C° 0 mm 3 mps 771 mmHg 47%
    16:00 +18°C° 0 mm 3 mps 771 mmHg 58%
    17:00 +16°C° 0 mm 2 mps 771 mmHg 69%
    18:00 +14°C° 0 mm 2 mps 771 mmHg 80%
    19:00 +14°C° 0 mm 2 mps 772 mmHg 80%
    20:00 +13°C° 0 mm 1 mps 772 mmHg 80%
    21:00 +13°C° 0 mm 1 mps 772 mmHg 80%
    22:00 +13°C° 0 mm 1 mps 772 mmHg 79%
    23:00 +13°C° 0 mm 1 mps 772 mmHg 77%

    24 Febrero, Lunes

    Tiempo Temperatura Precipitaciones Viento Presión Humedad
    00:00 +13°C° 0 mm 1 mps 772 mmHg 76%
    01:00 +13°C° 0 mm 1 mps 772 mmHg 75%
    02:00 +13°C° 0 mm 1 mps 771 mmHg 73%
    03:00 +13°C° 0 mm 1 mps 771 mmHg 72%
    04:00 +12°C° 0 mm 1 mps 771 mmHg 71%
    05:00 +12°C° 0 mm 1 mps 771 mmHg 70%
    06:00 +12°C° 0 mm 1 mps 771 mmHg 69%
    07:00 +14°C° 0 mm 1 mps 771 mmHg 63%
    08:00 +16°C° 0 mm 1 mps 771 mmHg 56%
    09:00 +18°C° 0 mm 1 mps 771 mmHg 50%
    10:00 +20°C° 0 mm 1 mps 771 mmHg 47%
    11:00 +21°C° 0 mm 1 mps 770 mmHg 45%
    12:00 +21°C° 0 mm 2 mps 770 mmHg 42%
    13:00 +21°C° 0 mm 2 mps 769 mmHg 43%
    14:00 +23°C° 0 mm 2 mps 769 mmHg 44%
    15:00 +22°C° 0 mm 3 mps 768 mmHg 45%
    16:00 +19°C° 0 mm 3 mps 768 mmHg 55%
    17:00 +17°C° 0 mm 2 mps 767 mmHg 66%
    18:00 +15°C° 0 mm 2 mps 767 mmHg 76%
    19:00 +14°C° 0 mm 2 mps 768 mmHg 76%
    20:00 +14°C° 0 mm 1 mps 768 mmHg 77%
    21:00 +14°C° 0 mm 1 mps 768 mmHg 77%
    22:00 +14°C° 0 mm 1 mps 768 mmHg 74%
    23:00 +14°C° 0 mm 1 mps 767 mmHg 71%

    25 Febrero, Martes

    Tiempo Temperatura Precipitaciones Viento Presión Humedad
    00:00 +14°C° 0 mm 1 mps 767 mmHg 68%
    01:00 +14°C° 0 mm 1 mps 767 mmHg 64%
    02:00 +14°C° 0 mm 1 mps 766 mmHg 60%
    03:00 +14°C° 0 mm 1 mps 766 mmHg 56%
    04:00 +13°C° 0 mm 1 mps 766 mmHg 54%
    05:00 +13°C° 0 mm 1 mps 766 mmHg 51%
    06:00 +13°C° 0 mm 1 mps 766 mmHg 49%
    07:00 +15°C° 0 mm 1 mps 766 mmHg 45%
    08:00 +18°C° 0 mm 1 mps 766 mmHg 42%
    09:00 +20°C° 0 mm 1 mps 766 mmHg 38%
    10:00 +21°C° 0 mm 1 mps 766 mmHg 36%
    11:00 +23°C° 0 mm 1 mps 765 mmHg 33%
    12:00 +25°C° 0 mm 1 mps 765 mmHg 30%
    13:00 +24°C° 0 mm 2 mps 764 mmHg 32%
    14:00 +24°C° 0 mm 3 mps 764 mmHg 35%
    15:00 +24°C° 0 mm 3 mps 763 mmHg 37%
    16:00 +21°C° 0 mm 3 mps 763 mmHg 44%
    17:00 +19°C° 0 mm 2 mps 763 mmHg 51%
    18:00 +18°C° 0 mm 1 mps 763 mmHg 58%
    19:00 +16°C° 0 mm 2 mps 763 mmHg 56%
    20:00 +16°C° 0 mm 2 mps 763 mmHg 54%
    21:00 +16°C° 0 mm 2 mps 763 mmHg 52%
    22:00 +16°C° 0 mm 2 mps 763 mmHg 50%
    23:00 +16°C° 0 mm 2 mps 763 mmHg 48%
    Mostrar más